Location: Newark
(48.3453°N, 0.5589°E)
Time: 15:14:45
(UTC+00:00)

A-11 Canister half - Pass Details

Date: 10 December 2019
Orbit: 1516 x 1683 km, 47.2° (Epoch: 20 January)

Event Time Altitude Azimuth Distance (km) Brightness Sun altitude
Rises 10:02:37 0° 186° (S) 4,708 12.6 14.8°
Reaches altitude 10° 10:06:42 10° 170° (S) 3,755 13.0 15.1°
Maximum altitude 10:13:02 20° 128° (SE) 3,068 11.9 15.5°
Drops below altitude 10° 10:19:31 10° 86° (E) 3,857 11.4 15.9°
Sets 10:23:45 0° 71° (ENE) 4,875 11.7 16.2°
